Regional Weather Roundup
Issued by NWS

Home | Current Version | Previous Version | Text Only | Print | Product List | Glossary Off
Versions: 1 2 3 4 5 6 7 8 9 10 11 12 13 14 15 16 17 18 19 20 21 22 23 24 25 26 27 28 29 30 31 32 33 34 35 36 37 38 39 40 41 42 43 44 45 46 47 48 49 50

000
ASUS43 KBIS 281810
RWRND

NORTH DAKOTA REGIONAL WEATHER ROUNDUP
NATIONAL WEATHER SERVICE BISMARCK ND
1200 PM CST SUN DEC 28 2014

NOTE: "FAIR" INDICATES FEW OR NO CLOUDS BELOW 12,000 FEET WITH NO
SIGNIFICANT WEATHER AND/OR OBSTRUCTIONS TO VISIBILITY.


NDZ001>003-009>011-017-281900-
NORTHWEST NORTH DAKOTA

CITY           SKY/WX    TMP DP  RH WIND       PRES   REMARKS
WILLISTON      CLOUDY    10   2  69 E10       30.18R WCI  -4
6HR MIN TEMP:  10; 6HR MAX TEMP:  13;

MINOT          CLOUDY    -1  -6  79 N7        30.24R WCI -14
MINOT AFB      CLOUDY     0  -3  90 NE7       30.25S WCI -13
$$

NDZ018>021-031>035-040>046-281900-
SOUTHWEST NORTH DAKOTA

CITY           SKY/WX    TMP DP  RH WIND       PRES   REMARKS
BISMARCK       FLURRIES  10   6  84 E12       30.19S WCI  -5
6HR MIN TEMP:   9; 6HR MAX TEMP:  14; 6HR PCP: TRACE;

DICKINSON      LGT SNOW  18  13  80 E13       30.03S WCI   5
GARRISON         N/A      7   3  84 E10       30.18S WCI  -8
6HR MIN TEMP:   5; 6HR MAX TEMP:   9;

HETTINGER ARPT CLOUDY    19  15  84 E9        30.03R WCI   8
$$

NDZ004>008-012>016-024-026-027-054-281900-
NORTHEAST NORTH DAKOTA

CITY           SKY/WX    TMP DP  RH WIND       PRES   REMARKS
GRAND FORKS    SUNNY     -3 -10  72 N6        30.34F WCI -15
GRND FRKS AFB  SUNNY     -2  -9  72 N8        30.34S WCI -17
DEVILS LAKE    SUNNY     -2 -11  65 NE6       30.26F WCI -14
$$

NDZ022-023-025-028>030-036>039-047>053-281900-
SOUTHEAST NORTH DAKOTA

CITY           SKY/WX    TMP DP  RH WIND       PRES   REMARKS
FARGO          FAIR       4  -4  69 N12       30.29F WCI -12
6HR MIN TEMP:  -1; 6HR MAX TEMP:   5;

JAMESTOWN      CLOUDY     3  -4  72 NE10      30.22F WCI -12
$$




USA.gov is the U.S. government's official web portal to all federal, state and local government web resources and services.